1502017200.99,50923,25.06,74630.3,13.89,10.89,10.61,0,*45
1502017202.21,50924,25.06,74630.8,13.87,10.79,10.69,0,*4B
1502017203.41,50925,25.06,74632.0,13.87,9.57,9.33,0,*49
1502017204.63,50926,25.06,74630.0,13.87,10.09,9.81,0,*70
1502017205.83,50927,25.06,74628.5,13.81,9.95,9.71,0,*45
1502017207.08,50928,25.06,74630.5,13.81,9.61,9.35,0,*41
1502017208.32,50929,25.06,74630.8,13.81,10.17,9.81,0,*76
1502017209.53,50930,25.06,74630.8,13.79,9.91,9.57,0,*44
1502017210.77,50931,25.06,74634.8,13.79,9.81,9.39,0,*4C
1502017212.0,50932,25.06,74630.0,13.77,8.89,8.65,0,*40
1502017213.26,50933,25.06,74632.0,13.73,8.71,8.41,0,*44
1502017214.5,50934,25.06,74634.8,13.73,9.29,9.01,0,*4A
1502017215.7,50935,25.06,74632.5,13.71,9.57,9.29,0,*4A
1502017216.93,50936,25.06,74634.8,13.71,9.81,9.57,0,*4B
1502017218.16,50937,25.06,74634.3,13.69,9.91,9.61,0,*47
1502017219.4,50938,25.06,74632.5,13.69,9.75,9.57,0,*47
1502017220.63,50939,25.06,74634.5,13.69,9.57,9.29,0,*4F
1502017221.89,50940,25.06,74634.5,13.69,9.19,8.97,0,*4F
1502017223.1,50941,25.06,74632.3,13.67,9.11,8.79,0,*48
1502017224.34,50942,25.06,74632.3,13.65,9.67,9.49,0,*4A
1502017225.57,50943,25.06,74636.3,13.65,9.89,9.63,0,*43
1502017226.8,50944,25.06,74632.5,13.65,9.63,9.39,0,*4F
1502017228.01,50945,25.06,74634.8,13.65,9.43,9.33,0,*46
1502017229.22,50946,25.06,74632.0,13.69,10.03,9.75,0,*77
1502017230.43,50947,25.06,74632.0,13.59,9.95,9.81,0,*49
1502017231.67,50948,25.06,74632.0,13.63,9.85,9.57,0,*45
1502017232.86,50949,25.06,74628.8,13.59,9.91,9.75,0,*48
1502017234.08,50950,25.06,74632.0,13.63,9.85,9.75,0,*4C
1502017235.31,50951,25.06,74634.3,13.65,9.63,9.49,0,*4C
1502017236.52,50952,25.06,74628.3,13.63,9.63,9.53,0,*42
1502017237.75,50953,25.06,74634.5,13.63,9.53,9.39,0,*4C
1502017238.95,50954,25.06,74634.8,13.63,9.95,9.77,0,*4B
1502017240.17,50955,25.06,74634.5,13.63,9.89,9.75,0,*45
1502017241.41,50956,25.06,74636.3,13.59,9.19,9.01,0,*45
1502017242.64,50957,25.06,74632.5,13.59,9.35,9.19,0,*43
1502017243.91,50958,25.06,74632.5,13.57,9.89,9.81,0,*44
1502017245.15,50959,25.06,74634.3,13.57,9.77,9.67,0,*4C
1502017246.41,50960,25.06,74638.3,13.57,9.77,9.57,0,*45
1502017247.65,50961,25.06,74636.8,13.57,9.89,9.71,0,*41
1502017248.88,50962,25.06,74636.3,13.57,10.33,10.17,0,*43
1502017250.11,50963,25.06,74634.0,13.57,9.99,9.89,0,*45
1502017251.32,50964,25.06,74636.3,13.57,9.71,9.71,0,*43
1502017252.55,50965,25.06,74632.5,13.57,10.03,10.09,0,*48
1502017253.77,50966,25.06,74634.5,13.57,10.09,9.99,0,*70
1502017255.0,50967,25.06,74632.3,13.57,10.03,9.89,0,*7A
1502017256.24,50968,25.06,74632.8,13.57,9.77,9.67,0,*4E
1502017257.46,50969,25.06,74634.8,13.57,10.03,9.99,0,*75
1502017258.69,50970,25.06,74636.8,13.57,9.91,9.89,0,*4F
1502017259.97,50971,25.06,74634.8,13.57,10.23,10.23,0,*47
1502017261.19,50972,25.06,74634.8,13.55,10.09,10.03,0,*4C
1502017262.41,50973,25.06,74638.5,13.57,9.99,10.03,0,*7E
1502017263.66,50974,25.06,74636.5,13.57,10.23,10.33,0,*43
1502017264.88,50975,25.06,74638.3,13.55,10.33,10.43,0,*46
1502017266.15,50976,25.06,74636.5,13.57,10.23,10.37,0,*45
1502017267.37,50977,25.06,74638.0,13.57,9.99,10.09,0,*70
1502017268.59,50978,25.06,74634.8,13.57,10.03,10.13,0,*4F
1502017269.83,50979,25.06,74634.3,13.57,9.61,9.67,0,*49
1502017271.08,50980,25.06,74634.5,13.55,9.35,9.61,0,*4A
1502017272.29,50981,25.06,74632.5,13.57,9.21,9.47,0,*48
1502017273.52,50982,25.06,74632.5,13.55,9.35,9.71,0,*49
1502017274.75,50983,25.06,74632.5,13.55,9.01,9.33,0,*49
1502017276.0,50984,25.06,74636.8,13.55,8.71,9.11,0,*48
1502017277.21,50985,25.06,74638.3,13.53,9.07,9.39,0,*45
1502017278.38,50986,25.06,74636.8,13.53,9.21,9.63,0,*4D
1502017279.64,50987,25.06,74632.5,13.55,8.93,9.15,0,*43
1502017280.87,50988,25.06,74636.5,13.53,9.01,9.39,0,*4E
1502017282.07,50989,25.06,74634.3,13.53,8.89,9.21,0,*47
1502017283.29,50990,25.06,74636.0,13.55,8.79,9.21,0,*46
1502017284.46,50991,25.06,74638.3,13.53,9.29,9.63,0,*43
1502017285.68,50992,25.06,74636.5,13.53,9.77,10.09,0,*7F
1502017286.92,50993,25.06,74636.5,13.55,9.47,9.81,0,*43
1502017288.18,50994,25.06,74636.8,13.55,9.35,9.77,0,*48
1502017289.39,50995,25.06,74638.3,13.55,9.43,9.91,0,*40
1502017290.63,50996,25.06,74638.3,13.55,9.49,10.03,0,*7A
1502017291.89,50997,25.06,74636.5,13.55,9.35,9.89,0,*4A
1502017293.11,50998,25.06,74640.0,13.55,9.21,9.61,0,*46
1502017294.35,50999,25.06,74638.0,13.57,9.35,9.71,0,*41
1502017295.56,51000,25.06,74638.3,13.57,9.43,9.71,0,*48
1502017296.82,51001,25.06,74636.5,13.57,9.57,9.77,0,*4A
1502017298.03,51002,25.06,74636.3,13.59,9.53,9.75,0,*41
1502017299.22,51003,25.06,74640.5,13.59,9.71,9.91,0,*4A
1502017300.4,51004,25.06,74638.3,13.59,9.91,9.95,0,*47
1502017301.62,51005,25.06,74642.3,13.63,9.85,9.95,0,*4A
1502017302.87,51006,25.06,74636.5,13.57,9.61,9.77,0,*48
1502017304.06,51007,25.06,74636.0,13.59,9.75,9.91,0,*4A
1502017305.29,51008,25.06,74640.0,13.59,9.61,9.85,0,*45
1502017306.48,51009,25.06,74638.8,13.59,9.75,10.03,0,*77
1502017307.7,51010,25.06,74638.0,13.59,9.81,10.03,0,*74
1502017308.89,51011,25.06,74638.8,13.59,9.71,9.91,0,*49
1502017310.13,51012,25.06,74636.8,13.59,9.61,9.81,0,*4A
1502017311.35,51013,25.06,74642.5,13.59,9.81,10.05,0,*71
1502017312.57,51014,25.06,74636.5,13.59,10.03,10.41,0,*44
1502017313.78,51015,25.06,74638.3,13.59,10.03,10.37,0,*44
1502017314.99,51016,25.06,74638.8,13.59,9.61,10.03,0,*7C
1502017316.22,51017,25.06,74638.3,13.59,9.53,10.13,0,*7D
1502017317.44,51018,25.06,74638.5,13.63,9.67,10.23,0,*7F
1502017318.67,51019,25.06,74640.5,13.59,9.39,9.85,0,*48
1502017319.91,51020,25.06,74642.3,13.63,9.35,9.89,0,*4B
1502017321.12,51021,25.06,74636.8,13.59,9.03,9.61,0,*40
1502017322.31,51022,25.06,74636.5,13.59,9.29,10.05,0,*71
1502017323.5,51023,25.06,74638.5,13.59,9.25,9.91,0,*49
1502017324.74,51024,25.06,74636.0,13.59,9.57,10.23,0,*7A
1502017325.97,51025,25.06,74638.8,13.59,9.49,10.13,0,*77
1502017327.21,51026,25.06,74636.3,13.59,9.39,9.85,0,*44
1502017328.42,51027,25.06,74634.0,13.59,9.29,9.81,0,*40
1502017329.64,51028,25.06,74636.0,13.63,9.43,9.89,0,*42
1502017330.85,51029,25.06,74636.0,13.59,9.19,9.71,0,*42
1502017332.03,51030,25.06,74636.5,13.63,9.21,9.75,0,*4C
1502017333.24,51031,25.06,74638.8,13.59,8.97,9.25,0,*4D
1502017334.45,51032,25.06,74638.5,13.59,8.83,9.19,0,*44
1502017335.68,51033,25.06,74642.5,13.59,8.71,9.15,0,*44
1502017336.91,51034,25.06,74640.0,13.59,8.75,9.15,0,*47
1502017338.14,51035,25.06,74642.0,13.59,8.75,9.15,0,*46
1502017339.35,51036,25.06,74642.0,13.59,9.03,9.39,0,*4B
1502017340.55,51037,25.06,74638.0,13.59,9.35,9.63,0,*40
1502017341.74,51038,25.06,74640.5,13.59,9.47,9.75,0,*4D
1502017342.95,51039,25.06,74640.8,13.59,9.07,9.35,0,*4C
1502017344.2,51040,25.06,74640.3,13.65,9.49,9.75,0,*43
1502017345.4,51041,25.06,74642.3,13.63,9.57,9.75,0,*4B
1502017346.61,51042,25.06,74640.5,13.65,9.43,9.63,0,*4C
1502017347.83,51043,25.06,74642.8,13.63,9.43,9.57,0,*4C
1502017349.03,51044,25.06,74640.8,13.63,9.61,9.67,0,*48
1502017350.24,51045,25.06,74636.3,13.63,9.53,9.67,0,*48
1502017351.43,51046,25.06,74640.8,13.63,9.99,10.17,0,*72
1502017352.66,51047,25.06,74636.8,13.65,10.05,10.17,0,*48
1502017353.91,51048,25.06,74636.3,13.65,10.17,10.19,0,*4A
1502017355.16,51049,25.06,74638.0,13.65,10.33,10.41,0,*40
1502017356.39,51050,25.06,74636.5,13.67,10.19,10.33,0,*47
1502017357.64,51051,25.06,74640.0,13.65,10.33,10.41,0,*49
1502017358.91,51052,25.06,74642.3,13.65,10.19,10.31,0,*45
1502017360.17,51053,25.06,74640.3,13.65,10.09,10.23,0,*46
1502017361.42,51054,25.06,74640.3,13.65,10.17,10.23,0,*4E
1502017362.68,51055,25.06,74642.0,13.65,10.17,10.31,0,*4C
1502017363.93,51056,25.06,74642.5,13.65,10.17,10.31,0,*4F
1502017365.19,51057,25.06,74640.0,13.65,10.09,10.19,0,*4B
1502017366.39,51058,25.06,74644.0,13.63,10.17,10.17,0,*43
1502017367.61,51059,25.06,74642.8,13.65,10.09,10.17,0,*4B
1502017368.8,51060,25.06,74642.5,13.59,9.91,9.95,0,*45
1502017370.0,51061,25.06,74640.5,13.63,10.05,10.05,0,*49
1502017371.19,51062,25.06,74642.3,13.63,10.05,9.99,0,*77
1502017372.43,51063,25.06,74640.0,13.63,9.85,9.89,0,*47
1502017373.62,51064,25.06,74646.5,13.63,9.95,10.05,0,*7D
1502017374.8,51065,25.06,74644.8,13.63,9.63,9.75,0,*4A
1502017376.04,51066,25.06,74640.8,13.59,9.35,9.49,0,*4C
1502017377.25,51067,25.06,74642.5,13.63,9.53,9.67,0,*48
1502017378.46,51068,25.06,74642.8,13.59,9.25,9.49,0,*43
1502017379.67,51069,25.06,74640.5,13.57,9.21,9.25,0,*42
1502017380.93,51070,25.06,74644.0,13.57,8.93,8.93,0,*4E
1502017382.19,51071,25.06,74642.5,13.55,8.89,8.93,0,*46
1502017383.44,51072,25.06,74644.8,13.55,9.11,9.11,0,*4E
1502017384.69,51073,25.06,74644.0,13.55,9.11,9.11,0,*4F
1502017385.93,51074,25.06,74644.3,13.53,8.33,8.33,0,*4E
1502017387.18,51075,25.06,74644.8,13.51,8.41,8.47,0,*4B
1502017388.37,51076,25.06,74644.3,13.51,8.65,8.65,0,*4E
1502017389.57,51077,25.06,74646.0,13.51,8.61,8.65,0,*4B
1502017390.79,51078,25.06,74644.3,13.49,8.97,8.97,0,*49
1502017392.02,51079,25.06,74644.3,13.49,8.47,8.29,0,*40
1502017393.25,51080,25.06,74642.5,13.47,8.47,8.27,0,*46
1502017394.47,51081,25.06,74644.0,13.47,8.15,7.79,0,*44
1502017395.7,51082,25.06,74640.5,13.47,7.87,7.59,0,*41
1502017396.95,51083,25.06,74640.0,13.43,8.29,8.13,0,*4E
1502017398.18,51084,25.06,74642.8,13.45,8.41,8.29,0,*48
1502017399.41,51085,25.06,74640.0,13.43,8.59,8.45,0,*4C
1502017400.63,51086,25.06,74644.8,13.43,8.01,7.91,0,*44
1502017401.83,51087,25.06,74640.0,13.41,7.97,7.87,0,*40
1502017403.02,51088,25.06,74640.8,13.41,8.27,8.09,0,*42
1502017404.23,51089,25.06,74642.3,13.37,8.15,7.95,0,*49
1502017405.46,51090,25.06,74638.8,13.37,8.47,8.33,0,*45
1502017406.65,51091,25.06,74636.0,13.37,8.27,8.15,0,*46
1502017407.85,51092,25.06,74636.8,13.37,8.61,8.47,0,*40
1502017409.03,51093,25.06,74638.3,13.37,8.45,8.27,0,*41
1502017410.25,51094,25.06,74636.0,13.37,7.83,7.65,0,*4A
1502017411.46,51095,25.06,74640.5,13.37,7.45,7.11,0,*42
1502017412.69,51096,25.06,74638.3,13.31,7.51,7.19,0,*4A
1502017413.91,51097,25.06,74636.8,13.31,6.83,6.53,0,*4A
1502017415.1,51098,25.06,74636.3,13.29,7.59,7.29,0,*46
1502017416.33,51099,25.06,74634.8,13.27,7.91,7.59,0,*4A
1502017417.53,51100,25.06,74636.0,13.25,7.45,7.23,0,*4D
1502017418.74,51101,25.06,74638.3,13.25,7.11,6.83,0,*46
1502017419.99,51102,25.06,74634.5,13.21,6.69,6.39,0,*4E
1502017421.24,51103,25.06,74638.8,13.21,6.69,6.61,0,*42
1502017422.46,51104,25.06,74638.3,13.17,7.05,6.69,0,*43
1502017423.66,51105,25.06,74640.8,13.17,7.33,7.01,0,*48
1502017424.86,51106,25.06,74638.8,13.13,7.33,7.01,0,*4F
1502017426.07,51107,25.06,74636.5,13.13,7.29,6.97,0,*4B
1502017427.25,51108,25.06,74640.0,13.11,7.45,7.09,0,*4A
1502017428.42,51109,25.06,74638.5,13.07,7.45,7.01,0,*44
1502017429.66,51110,25.06,74638.3,13.07,7.61,7.27,0,*4E
1502017430.89,51111,25.06,74636.8,13.07,7.47,7.23,0,*4F
1502017432.08,51112,25.06,74642.5,13.03,7.29,6.97,0,*4E
1502017433.32,51113,25.06,74640.3,13.03,7.23,6.91,0,*43
1502017434.53,51114,25.06,74642.3,13.01,7.29,7.05,0,*40
1502017435.76,51115,25.06,74642.8,12.99,7.87,7.65,0,*43
1502017436.97,51116,25.06,74636.5,12.99,8.33,8.23,0,*4D
1502017438.16,51117,25.06,74642.3,12.99,8.09,7.97,0,*45
1502017439.4,51118,25.06,74642.3,12.97,7.73,7.41,0,*4D
1502017440.63,51119,25.06,74636.8,12.95,7.27,7.11,0,*4A
1502017441.83,51120,25.06,74640.3,12.95,7.23,7.01,0,*45
1502017443.01,51121,25.06,74640.8,12.89,7.51,7.41,0,*48
1502017444.25,51122,25.06,74640.0,12.89,7.73,7.65,0,*4D
1502017445.48,51123,25.06,74640.3,12.87,7.55,7.27,0,*40
1502017446.68,51124,25.06,74644.5,12.83,7.33,6.97,0,*49
1502017447.86,51125,25.06,74646.5,12.81,7.55,7.09,0,*4C
1502017449.07,51126,25.06,74646.5,12.81,7.55,7.15,0,*42
1502017450.28,51127,25.06,74642.5,12.81,7.61,7.51,0,*44
1502017451.49,51128,25.06,74642.5,12.77,7.73,7.51,0,*41
1502017452.7,51129,25.06,74636.3,12.77,7.87,7.59,0,*43
1502017453.93,51130,25.06,74640.0,12.77,7.87,7.73,0,*43
1502017455.14,51131,25.06,74640.8,12.75,8.09,7.97,0,*43
1502017456.33,51132,25.06,74638.0,12.75,7.97,7.97,0,*48
1502017457.54,51133,25.06,74638.3,12.73,7.83,7.79,0,*4A
1502017458.75,51134,25.06,74638.5,12.69,8.13,8.19,0,*49
1502017459.97,51135,25.06,74636.8,12.67,8.45,8.45,0,*4C
1502017461.2,51136,25.06,74636.8,12.69,8.41,8.41,0,*41
1502017462.46,51137,25.06,74638.0,12.67,8.33,8.41,0,*4B
1502017463.68,51138,25.06,74638.8,12.67,8.19,8.23,0,*48
1502017464.93,51139,25.06,74634.8,12.67,8.29,8.41,0,*4E
1502017466.17,51140,25.06,74636.3,12.65,8.41,8.47,0,*4A
1502017467.41,51141,25.06,74638.0,12.65,8.55,8.51,0,*49
1502017468.67,51142,25.06,74636.5,12.63,7.95,7.91,0,*4C
1502017469.88,51143,25.06,74638.3,12.63,8.05,8.05,0,*49
1502017471.09,51144,25.06,74636.3,12.61,8.13,8.05,0,*4B
1502017472.3,51145,25.06,74634.3,12.61,7.83,7.79,0,*48
1502017473.53,51146,25.06,74638.0,12.59,7.91,7.87,0,*42
1502017474.74,51147,25.06,74636.3,12.59,8.05,7.95,0,*42
1502017475.93,51148,25.06,74640.8,12.59,7.97,7.87,0,*4A
1502017477.17,51149,25.06,74638.5,12.61,7.95,7.91,0,*45
1502017478.4,51150,25.06,74636.3,12.57,7.97,7.95,0,*4E
1502017479.62,51151,25.06,74636.0,12.57,8.15,8.09,0,*40
1502017480.8,51152,25.06,74638.5,12.55,8.19,8.15,0,*40
1502017481.99,51153,25.06,74638.0,12.55,8.19,8.19,0,*4D
1502017483.17,51154,25.06,74636.5,12.55,8.27,8.19,0,*47
1502017484.36,51155,25.06,74640.8,12.55,8.15,8.09,0,*46
1502017485.61,51156,25.06,74642.3,12.53,8.47,8.47,0,*4E
1502017486.84,51157,25.06,74636.8,12.53,8.79,8.71,0,*47
1502017488.09,51158,25.06,74636.5,12.53,8.51,8.41,0,*41
1502017489.34,51159,25.06,74636.3,12.53,8.51,8.41,0,*40
1502017490.54,51160,25.06,74636.5,12.53,8.69,8.61,0,*43
1502017491.73,51161,25.06,74636.0,12.51,8.83,8.83,0,*48
1502017492.99,51162,25.06,74632.5,12.53,8.89,8.89,0,*49
1502017494.25,51163,25.06,74636.5,12.53,9.01,9.01,0,*48
1502017495.46,51164,25.06,74636.8,12.53,9.03,9.03,0,*4F
1502017496.68,51165,25.06,74634.5,12.51,9.15,9.15,0,*4C
1502017497.91,51166,25.06,74636.5,12.53,9.15,9.07,0,*4E
1502017499.1,51167,25.06,74632.5,12.51,9.03,9.07,0,*4A
1502017500.29,51168,25.06,74632.3,12.51,9.07,9.03,0,*45
1502017501.53,51169,25.06,74636.5,12.53,9.19,9.07,0,*4D
1502017502.78,51170,25.06,74634.3,12.53,8.89,8.93,0,*41
1502017503.99,51171,25.06,74634.8,12.53,8.83,8.83,0,*4B
1502017505.24,51172,25.06,74632.8,12.53,8.71,8.71,0,*48
1502017506.44,51173,25.06,74634.0,12.51,8.69,8.89,0,*45
1502017507.67,51174,25.06,74632.8,12.53,8.93,9.03,0,*46
1502017508.86,51175,25.06,74638.8,12.51,9.07,9.25,0,*4D
1502017510.1,51176,25.06,74632.5,12.51,9.49,9.61,0,*44
1502017511.31,51177,25.06,74636.8,12.51,9.81,9.91,0,*4E
1502017512.52,51178,25.06,74632.5,12.51,9.85,9.95,0,*41
1502017513.74,51179,25.06,74634.5,12.49,9.91,10.03,0,*7B
1502017514.96,51180,25.06,74638.3,12.49,9.91,10.03,0,*7D
1502017516.19,51181,25.06,74634.3,12.49,10.03,10.13,0,*4E
1502017517.41,51182,25.06,74638.8,12.49,10.03,10.13,0,*4D
1502017518.63,51183,25.06,74636.0,12.49,9.99,10.03,0,*76
1502017519.87,51184,25.06,74634.8,12.49,9.81,9.91,0,*4B
1502017521.11,51185,25.06,74636.5,12.49,9.81,9.99,0,*42
1502017522.31,51186,25.06,74638.3,12.51,9.91,10.05,0,*74
1502017523.49,51187,25.06,74636.0,12.51,9.91,9.95,0,*44
1502017524.67,51188,25.06,74634.3,12.51,9.75,9.91,0,*45
1502017525.89,51189,25.06,74634.3,12.51,9.71,9.85,0,*45
1502017527.16,51190,25.06,74634.3,12.49,9.77,9.81,0,*46
1502017528.37,51191,25.06,74636.5,12.51,9.81,9.95,0,*42
1502017529.59,51192,25.06,74632.0,12.51,9.81,10.03,0,*76
1502017530.77,51193,25.06,74634.3,12.51,9.91,9.95,0,*41
1502017532.01,51194,25.06,74638.3,12.49,9.89,9.91,0,*42
1502017533.26,51195,25.06,74634.5,12.49,9.71,9.81,0,*45
1502017534.52,51196,25.06,74632.5,12.45,9.85,9.85,0,*45
1502017535.79,51197,25.06,74636.0,12.49,9.77,9.81,0,*41
1502017537.03,51198,25.06,74632.3,12.49,9.89,9.91,0,*4E
1502017538.24,51199,25.06,74632.0,12.45,9.99,9.99,0,*4A
1502017539.45,51200,25.06,74632.8,12.45,9.99,9.99,0,*49
1502017540.7,51201,25.06,74632.3,12.49,10.19,10.13,0,*4E
1502017541.95,51202,25.06,74634.8,12.45,10.17,10.27,0,*48
1502017543.21,51203,25.06,74632.0,12.49,10.19,10.13,0,*4C
1502017544.46,51204,25.06,74632.0,12.45,10.17,10.19,0,*43
1502017545.71,51205,25.06,74634.0,12.45,10.17,10.27,0,*4F
1502017546.92,51206,25.06,74634.8,12.45,10.43,10.43,0,*4F
1502017548.19,51207,25.06,74632.3,12.45,10.37,10.37,0,*4E
1502017549.46,51208,25.06,74634.0,12.45,10.31,10.37,0,*47
1502017550.73,51209,25.06,74634.5,12.45,10.31,10.37,0,*46
1502017551.94,51210,25.06,74632.0,12.43,10.37,10.43,0,*4D
1502017553.2,51211,25.06,74632.5,12.41,10.27,10.37,0,*4C
1502017554.39,51212,25.06,74634.0,12.43,10.51,10.55,0,*48
1502017555.58,51213,25.06,74634.5,12.43,10.55,10.55,0,*4D
1502017556.8,51214,25.06,74634.8,12.45,10.43,10.55,0,*4B
1502017558.01,51215,25.06,74634.8,12.45,10.43,10.51,0,*4E
1502017559.28,51216,25.06,74632.3,12.45,10.61,10.75,0,*4B
1502017560.47,51217,25.06,74634.3,12.43,10.43,10.51,0,*4A
1502017561.68,51218,25.06,74632.5,12.43,10.55,10.61,0,*41
1502017562.87,51219,25.06,74634.8,12.43,10.55,10.55,0,*47
1502017564.05,51220,25.06,74632.8,12.43,10.43,10.43,0,*4D
1502017565.29,51221,25.06,74632.5,12.43,10.37,10.41,0,*4D
1502017566.48,51222,25.06,74634.3,12.43,10.43,10.55,0,*48
1502017567.69,51223,25.06,74632.5,12.45,10.55,10.55,0,*48
1502017568.93,51224,25.06,74636.0,12.43,10.65,10.65,0,*49
1502017570.17,51225,25.06,74632.0,12.43,10.65,10.61,0,*4C
1502017571.38,51226,25.06,74634.3,12.43,10.55,10.61,0,*4C
1502017572.56,51227,25.06,74634.3,12.43,10.43,10.51,0,*49
1502017573.78,51228,25.06,74632.5,12.41,10.47,10.51,0,*40
1502017574.99,51229,25.06,74634.8,12.43,10.55,10.61,0,*43
1502017576.23,51230,25.06,74632.3,12.43,10.65,10.65,0,*4C
1502017577.47,51231,25.06,74634.8,12.43,10.61,10.61,0,*4D
1502017578.71,51232,25.06,74632.3,12.43,10.61,10.71,0,*4F
1502017579.92,51233,25.06,74630.5,12.43,10.55,10.57,0,*4D
1502017581.1,51234,25.06,74634.5,12.43,10.51,10.51,0,*48
1502017582.31,51235,25.06,74632.3,12.43,10.43,10.41,0,*4B
1502017583.53,51236,25.06,74634.0,12.41,10.51,10.51,0,*48
1502017584.75,51237,25.06,74634.8,12.43,10.61,10.55,0,*4C
1502017585.96,51238,25.06,74630.8,12.43,10.51,10.41,0,*45
1502017587.15,51239,25.06,74634.3,12.43,10.55,10.55,0,*45
1502017588.4,51240,25.06,74632.3,12.41,10.69,10.71,0,*40
1502017589.64,51241,25.06,74634.3,12.43,10.75,10.83,0,*43
1502017590.89,51242,25.06,74630.8,12.43,10.75,10.83,0,*40
1502017592.16,51243,25.06,74632.5,12.41,10.71,10.71,0,*4A
1502017593.42,51244,25.06,74632.3,12.41,10.57,10.57,0,*4D
1502017594.66,51245,25.06,74634.3,12.43,10.71,10.65,0,*4B
1502017595.9,51246,25.06,74632.3,12.41,10.51,10.57,0,*49
1502017597.14,51247,25.06,74630.0,12.41,10.61,10.69,0,*46
1502017598.38,51248,25.06,74632.5,12.43,10.75,10.75,0,*43
1502017599.63,51249,25.06,74634.8,12.43,10.71,10.71,0,*42
1502017600.87,51250,25.06,74634.5,12.43,10.71,10.71,0,*4A
1502017602.12,51251,25.06,74630.8,12.43,10.75,10.75,0,*4B
1502017603.3,51252,25.06,74632.0,12.43,10.93,10.85,0,*4F
1502017604.49,51253,25.06,74628.5,12.43,10.93,10.85,0,*4E
1502017605.71,51254,25.06,74634.0,12.43,10.95,10.93,0,*48
1502017606.92,51255,25.06,74632.3,12.43,10.95,10.85,0,*4E
1502017608.14,51256,25.06,74630.8,12.43,11.03,10.93,0,*44
1502017609.35,51257,25.06,74630.5,12.43,10.93,10.65,0,*44
1502017610.59,51258,25.06,74628.8,12.45,10.61,10.51,0,*47
1502017611.86,51259,25.06,74630.5,12.45,10.61,10.41,0,*47
1502017613.13,51260,25.06,74628.5,12.45,10.75,10.65,0,*4E
1502017614.38,51261,25.06,74630.5,12.45,11.03,10.93,0,*46
1502017615.63,51262,25.06,74630.5,12.45,11.07,10.93,0,*41
1502017616.88,51263,25.06,74630.0,12.49,11.13,10.95,0,*4F
1502017618.13,51264,25.06,74630.8,12.49,10.89,10.79,0,*48
1502017619.39,51265,25.06,74634.0,12.45,10.65,10.61,0,*4E
1502017620.66,51266,25.06,74630.5,12.49,10.75,10.65,0,*44
1502017621.88,51267,25.06,74630.8,12.45,10.55,10.43,0,*4F
1502017623.14,51268,25.06,74630.5,12.49,10.65,10.57,0,*4A
1502017624.39,51269,25.06,74634.5,12.49,10.75,10.69,0,*47
1502017625.63,51270,25.06,74634.8,12.45,10.43,10.41,0,*4C
1502017626.89,51271,25.06,74634.8,12.49,10.37,10.41,0,*42
1502017628.11,51272,25.06,74634.0,12.45,10.51,10.51,0,*4C
1502017629.35,51273,25.06,74632.5,12.45,10.51,10.37,0,*4D
1502017630.6,51274,25.06,74634.0,12.49,10.31,10.09,0,*4D
1502017631.83,51275,25.06,74634.0,12.45,9.77,9.29,0,*40
1502017633.04,51276,25.06,74634.8,12.49,9.63,9.21,0,*42
1502017634.24,51277,25.06,74630.5,12.45,9.63,9.33,0,*4C
1502017635.48,51278,25.06,74628.3,12.45,10.19,9.99,0,*76
1502017636.7,51279,25.06,74632.5,12.45,10.17,9.95,0,*75
1502017637.94,51280,25.06,74634.3,12.45,9.77,9.43,0,*46
1502017639.14,51281,25.06,74628.5,12.45,9.63,9.33,0,*45
1502017640.34,51282,25.06,74630.5,12.43,9.61,9.29,0,*49
1502017641.55,51283,25.06,74636.8,12.43,9.89,9.75,0,*47
1502017642.79,51284,25.06,74634.0,12.41,9.81,9.71,0,*4E
1502017644.02,51285,25.06,74634.8,12.43,9.85,9.61,0,*48
1502017645.24,51286,25.06,74636.0,12.43,9.61,9.61,0,*41
1502017646.42,51287,25.06,74636.5,12.43,9.33,9.21,0,*43
1502017647.62,51288,25.06,74640.8,12.43,9.61,9.63,0,*4D
1502017648.88,51289,25.06,74638.0,12.41,9.81,9.85,0,*48
1502017650.12,51290,25.06,74638.8,12.41,9.63,9.85,0,*4C
1502017651.36,51291,25.06,74638.8,12.41,9.49,9.75,0,*4A
1502017652.6,51292,25.06,74638.3,12.41,9.47,9.61,0,*42
1502017653.8,51293,25.06,74640.0,12.43,9.43,9.61,0,*45
1502017655.01,51294,25.06,74638.8,12.43,9.67,9.85,0,*4E
1502017656.24,51295,25.06,74640.5,12.45,9.61,9.75,0,*40
1502017657.45,51296,25.06,74638.8,12.43,9.01,9.21,0,*42
1502017658.66,51297,25.06,74638.3,12.43,9.01,9.29,0,*4B
1502017659.87,51298,25.06,74638.5,12.43,9.01,9.29,0,*44
1502017661.06,51299,25.06,74636.5,12.43,9.21,9.39,0,*46
1502017662.25,51300,25.06,74640.8,12.43,9.21,9.43,0,*4A
1502017663.46,51301,25.06,74638.3,12.41,9.07,9.29,0,*41
1502017664.66,51302,25.06,74638.3,12.43,9.01,9.29,0,*46
1502017665.87,51303,25.06,74640.8,12.43,8.83,9.11,0,*47
1502017667.07,51304,25.06,74636.5,12.43,9.21,9.39,0,*43
1502017668.25,51305,25.06,74638.0,12.43,9.07,9.29,0,*47
1502017669.48,51306,25.06,74636.3,12.43,9.19,9.39,0,*4A
1502017670.69,51307,25.06,74640.8,12.43,9.19,9.43,0,*46
1502017671.95,51308,25.06,74642.0,12.41,9.15,9.35,0,*46
1502017673.13,51309,25.06,74640.3,12.43,9.21,9.43,0,*43
1502017674.34,51310,25.06,74638.3,12.45,9.21,9.43,0,*4D
1502017675.55,51311,25.06,74638.3,12.43,9.49,9.75,0,*41
1502017676.77,51312,25.06,74640.5,12.41,9.75,9.91,0,*45
1502017678.0,51313,25.06,74636.5,12.45,9.75,9.89,0,*49
1502017679.24,51314,25.06,74636.5,12.45,9.67,9.85,0,*41
1502017680.49,51315,25.06,74640.8,12.45,9.61,9.77,0,*4B
1502017681.75,51316,25.06,74638.3,12.45,9.61,9.89,0,*49
1502017682.98,51317,25.06,74636.3,12.45,9.63,9.77,0,*4B
1502017684.22,51318,25.06,74636.0,12.45,9.63,9.85,0,*49
1502017685.45,51319,25.06,74638.3,12.49,9.53,9.67,0,*4B
1502017686.7,51320,25.0,74634.5,12.49,9.71,9.81,0,*49
1502017687.93,51321,25.06,74638.0,12.49,9.53,9.67,0,*40
1502017689.14,51322,25.06,74634.8,12.49,9.63,9.67,0,*40
1502017690.34,51323,25.06,74636.0,12.51,9.91,10.05,0,*79
1502017691.53,51324,25.06,74636.5,12.51,9.91,10.17,0,*7D
1502017692.75,51325,25.06,74638.3,12.51,9.81,10.05,0,*7E
1502017693.97,51326,25.06,74632.5,12.51,9.67,9.81,0,*41
1502017695.2,51327,25.06,74634.3,12.51,9.61,9.81,0,*46
1502017696.42,51328,25.06,74632.3,12.51,9.85,10.03,0,*71
1502017697.62,51329,25.06,74638.3,12.51,9.91,10.05,0,*73
1502017698.81,51330,25.06,74638.0,12.51,9.91,10.05,0,*7B
1502017700.01,51331,25.06,74636.0,12.51,9.91,10.13,0,*7D
1502017701.19,51332,25.06,74638.8,12.51,9.91,9.95,0,*48
1502017702.4,51333,25.06,74638.8,12.51,9.85,9.95,0,*4C
1502017703.59,51334,25.06,74638.0,12.51,9.95,10.13,0,*7C
1502017704.86,51335,25.06,74636.5,12.53,10.23,10.27,0,*4D
1502017706.06,51336,25.06,74638.8,12.51,10.17,10.17,0,*48
1502017707.28,51337,25.06,74638.3,12.51,9.81,9.91,0,*48
1502017708.5,51338,25.06,74636.5,12.51,10.05,10.27,0,*46
1502017709.74,51339,25.06,74636.8,12.51,10.23,10.37,0,*42
1502017710.96,51340,25.06,74636.5,12.53,10.17,10.33,0,*4D
1502017712.2,51341,25.06,74636.3,12.51,10.27,10.37,0,*49
1502017713.44,51342,25.06,74638.0,12.51,10.27,10.37,0,*4A
1502017714.71,51343,25.06,74638.3,12.53,10.61,10.71,0,*49
1502017715.93,51344,25.06,74640.0,12.51,10.47,10.71,0,*48
1502017717.19,51345,25.06,74634.5,12.53,10.61,10.79,0,*47
1502017718.43,51346,25.06,74636.8,12.53,10.33,10.37,0,*49